Location: Asheville, NC
(35.6000°N, 82.5500°W)
Time: 00:06:50
(UTC-05:00)

NO-84 - Pass Details

Date: 04 January 2018
Orbit: 336 x 568 km, 55.0° (Epoch: 18 January)

Event Time Altitude Azimuth Distance (km) Brightness Sun altitude
Exits shadow 06:32:14 14° 340° (NNW) 1,254 ? -13.5°
Maximum altitude 06:34:41 34° 43° (NE) 720 ? -13.1°
Drops below altitude 10° 06:37:53 10° 110° (ESE) 1,560 ? -12.5°
Sets 06:40:14 0° 119° (ESE) 2,478 ? -12.0°
